Date,TemperatureHighF,TemperatureAvgF,TemperatureLowF,DewpointHighF,DewpointAvgF,DewpointLowF,HumidityHigh,HumidityAvg,HumidityLow,PressureMaxIn,PressureMinIn,WindSpeedMaxMPH,WindSpeedAvgMPH,GustSpeedMaxMPH,PrecipitationSumIn
2013-5-1,75,58,43,53,41,29,98,62,22,30.37,30.25,8,3,8,0.00
2013-5-2,74,57,39,51,44,38,99,66,33,30.38,30.27,13,3,13,0.00
2013-5-3,73,57,42,48,44,41,98,67,34,30.34,30.23,10,4,10,0.00
2013-5-4,72,55,38,46,42,38,98,67,34,30.29,30.13,8,3,8,0.00
2013-5-5,69,53,41,45,42,40,95,68,38,30.20,30.09,11,3,11,0.00
2013-5-6,63,54,42,57,49,41,96,84,73,30.14,30.02,10,3,10,0.09
2013-5-7,63,60,58,60,57,55,93,90,86,30.03,29.92,9,3,9,0.86
2013-5-8,74,61,53,59,55,51,97,84,52,29.96,29.89,9,1,9,0.19
2013-5-9,76,62,50,60,55,50,98,81,51,29.97,29.88,8,2,8,0.01
2013-5-10,88,66,50,64,56,49,97,76,40,29.98,29.85,15,3,15,0.47
2013-5-11,78,66,61,65,62,58,98,89,63,29.86,29.71,7,1,7,0.35
2013-5-12,64,56,42,56,38,27,95,55,27,29.99,29.74,11,4,11,0.00
2013-5-13,61,52,37,35,29,22,88,45,23,30.07,29.98,12,3,14,0.00
2013-5-14,66,48,32,44,33,29,92,61,30,30.16,29.99,8,2,8,0.00
2013-5-15,85,63,47,66,54,44,90,73,49,30.00,29.66,8,2,8,0.00
2013-5-16,83,68,60,64,61,57,91,77,51,29.92,29.73,9,2,9,0.04
2013-5-17,86,70,54,61,56,45,97,66,30,30.11,29.92,5,2,5,0.00
2013-5-18,67,63,59,58,55,52,89,76,64,30.19,30.11,7,2,7,0.00
2013-5-19,72,64,58,65,60,55,94,88,76,30.17,30.06,5,1,5,0.00
2013-5-20,86,72,64,68,65,62,96,81,54,30.09,29.96,7,2,7,0.00
2013-5-21,90,75,62,72,66,60,96,77,53,29.98,29.85,8,2,8,0.00
2013-5-22,94,77,63,73,67,61,97,75,44,29.91,29.80,8,3,8,0.35
2013-5-23,80,69,63,69,65,62,98,88,64,29.88,29.74,7,1,7,0.21
2013-5-24,63,59,53,62,56,46,97,90,78,29.91,29.73,12,3,12,0.02
2013-5-25,68,53,38,41,36,34,87,57,33,30.14,30.04,16,4,16,0.00
2013-5-26,72,54,41,40,38,36,87,59,27,30.17,30.11,11,3,11,0.00
2013-5-27,57,56,56,52,52,51,85,84,83,30.17,30.16,2,1,2,0.00
2013-5-28,81,64,54,66,58,50,95,80,55,30.17,30.04,8,2,8,0.02
2013-5-29,92,74,58,69,63,57,98,74,42,30.09,30.04,6,2,6,0.00
2013-5-30,95,77,60,71,65,59,96,70,41,30.17,30.08,4,2,4,0.00
2013-5-31,93,76,62,69,64,60,96,71,37,30.14,30.01,5,2,5,0.00